• En España
  • Lista de países
  • Para 7 días
  • Temperatura del agua
  • Mapa Satelital
  • El tiempo en el mapa
  • Informadores
  • user-avatar
    Iniciar sesión

    Tiempo cada hora Porto Salvo

    Hoy, 24 Enero, Miércoles

    Tiempo Temperatura Precipitaciones Viento Presión Humedad
    00:00 +8°C° 0 mm 2 mps 762 mmHg 92%
    01:00 +7°C° 0 mm 2 mps 762 mmHg 92%
    02:00 +7°C° 0 mm 2 mps 762 mmHg 93%
    03:00 +7°C° 0 mm 2 mps 762 mmHg 93%
    04:00 +7°C° 0 mm 2 mps 762 mmHg 93%
    05:00 +6°C° 0 mm 2 mps 762 mmHg 93%
    06:00 +7°C° 0 mm 2 mps 762 mmHg 91%
    07:00 +8°C° 0 mm 2 mps 762 mmHg 90%
    08:00 +8°C° 0 mm 2 mps 762 mmHg 89%
    09:00 +11°C° 0 mm 1 mps 762 mmHg 81%
    10:00 +13°C° 0 mm 1 mps 762 mmHg 72%
    11:00 +15°C° 0 mm 1 mps 762 mmHg 64%
    12:00 +16°C° 0 mm 1 mps 762 mmHg 62%
    13:00 +16°C° 0 mm 2 mps 761 mmHg 60%
    14:00 +17°C° 0 mm 2 mps 761 mmHg 58%
    15:00 +16°C° 0 mm 2 mps 761 mmHg 65%
    16:00 +14°C° 0 mm 2 mps 761 mmHg 73%
    17:00 +12°C° 0 mm 3 mps 761 mmHg 80%
    18:00 +12°C° 0 mm 2 mps 761 mmHg 83%
    19:00 +12°C° 0 mm 2 mps 761 mmHg 87%
    20:00 +10°C° 0 mm 2 mps 761 mmHg 91%
    21:00 +10°C° 0 mm 2 mps 761 mmHg 91%
    22:00 +10°C° 0 mm 2 mps 761 mmHg 92%
    23:00 +10°C° 0 mm 2 mps 761 mmHg 92%

    Mañana, 25 Enero, Jueves

    Tiempo Temperatura Precipitaciones Viento Presión Humedad
    00:00 +10°C° 0 mm 3 mps 760 mmHg 93%
    01:00 +10°C° 0 mm 3 mps 760 mmHg 94%
    02:00 +11°C° 0 mm 4 mps 760 mmHg 95%
    03:00 +11°C° 0,5 mm 4 mps 760 mmHg 95%
    04:00 +12°C° 0,5 mm 5 mps 760 mmHg 95%
    05:00 +11°C° 0,5 mm 6 mps 759 mmHg 95%
    06:00 +11°C° 0,3 mm 6 mps 760 mmHg 91%
    07:00 +11°C° 0,3 mm 6 mps 760 mmHg 87%
    08:00 +11°C° 0,3 mm 7 mps 760 mmHg 83%
    09:00 +12°C° 0 mm 7 mps 760 mmHg 76%
    10:00 +12°C° 0 mm 7 mps 761 mmHg 69%
    11:00 +14°C° 0 mm 7 mps 761 mmHg 63%
    12:00 +13°C° 0 mm 8 mps 761 mmHg 60%
    13:00 +13°C° 0 mm 8 mps 761 mmHg 57%
    14:00 +13°C° 0 mm 9 mps 760 mmHg 54%
    15:00 +12°C° 0 mm 8 mps 761 mmHg 57%
    16:00 +10°C° 0 mm 8 mps 761 mmHg 61%
    17:00 +9°C° 0 mm 8 mps 762 mmHg 64%
    18:00 +9°C° 0 mm 8 mps 762 mmHg 66%
    19:00 +7°C° 0 mm 8 mps 763 mmHg 68%
    20:00 +6°C° 0 mm 8 mps 763 mmHg 70%
    21:00 +6°C° 0 mm 7 mps 764 mmHg 71%
    22:00 +6°C° 0 mm 7 mps 764 mmHg 72%
    23:00 +5°C° 0 mm 7 mps 764 mmHg 73%

    Pasado mañana, 26 Enero, Viernes

    Tiempo Temperatura Precipitaciones Viento Presión Humedad
    00:00 +5°C° 0 mm 6 mps 764 mmHg 74%
    01:00 +5°C° 0 mm 6 mps 764 mmHg 75%
    02:00 +5°C° 0 mm 6 mps 764 mmHg 77%
    03:00 +5°C° 0 mm 6 mps 764 mmHg 78%
    04:00 +5°C° 0 mm 6 mps 765 mmHg 79%
    05:00 +5°C° 0 mm 6 mps 765 mmHg 80%
    06:00 +5°C° 0 mm 6 mps 765 mmHg 79%
    07:00 +7°C° 0 mm 6 mps 766 mmHg 77%
    08:00 +7°C° 0 mm 6 mps 766 mmHg 76%
    09:00 +9°C° 0 mm 6 mps 766 mmHg 68%
    10:00 +10°C° 0 mm 6 mps 766 mmHg 61%
    11:00 +13°C° 0 mm 6 mps 767 mmHg 54%
    12:00 +12°C° 0 mm 7 mps 767 mmHg 53%
    13:00 +12°C° 0 mm 8 mps 767 mmHg 52%
    14:00 +13°C° 0 mm 8 mps 767 mmHg 51%
    15:00 +11°C° 0 mm 8 mps 767 mmHg 56%
    16:00 +10°C° 0 mm 8 mps 767 mmHg 62%
    17:00 +9°C° 0 mm 7 mps 766 mmHg 67%
    18:00 +8°C° 0 mm 7 mps 767 mmHg 70%
    19:00 +8°C° 0 mm 7 mps 767 mmHg 73%
    20:00 +6°C° 0 mm 7 mps 768 mmHg 76%
    21:00 +6°C° 0 mm 7 mps 768 mmHg 78%
    22:00 +6°C° 0 mm 7 mps 768 mmHg 79%
    23:00 +7°C° 0 mm 6 mps 768 mmHg 80%

    27 Enero, Sábado

    Tiempo Temperatura Precipitaciones Viento Presión Humedad
    00:00 +6°C° 0 mm 7 mps 767 mmHg 80%
    01:00 +6°C° 0 mm 7 mps 767 mmHg 79%
    02:00 +5°C° 0 mm 7 mps 767 mmHg 78%
    03:00 +5°C° 0 mm 8 mps 767 mmHg 78%
    04:00 +5°C° 0 mm 8 mps 767 mmHg 78%
    05:00 +5°C° 0 mm 8 mps 767 mmHg 78%
    06:00 +5°C° 0 mm 8 mps 767 mmHg 76%
    07:00 +6°C° 0 mm 8 mps 767 mmHg 74%
    08:00 +6°C° 0 mm 8 mps 767 mmHg 72%
    09:00 +9°C° 0 mm 8 mps 767 mmHg 65%
    10:00 +11°C° 0 mm 8 mps 767 mmHg 59%
    11:00 +13°C° 0 mm 8 mps 767 mmHg 52%
    12:00 +13°C° 0 mm 8 mps 767 mmHg 53%
    13:00 +15°C° 0 mm 9 mps 766 mmHg 53%
    14:00 +15°C° 0 mm 9 mps 766 mmHg 53%
    15:00 +13°C° 0 mm 9 mps 766 mmHg 60%
    16:00 +12°C° 0 mm 9 mps 766 mmHg 66%
    17:00 +11°C° 0 mm 8 mps 766 mmHg 73%
    18:00 +10°C° 0 mm 9 mps 766 mmHg 76%
    19:00 +10°C° 0 mm 9 mps 766 mmHg 80%
    20:00 +10°C° 0 mm 9 mps 766 mmHg 84%
    21:00 +10°C° 0 mm 9 mps 766 mmHg 84%
    22:00 +10°C° 0 mm 9 mps 765 mmHg 84%
    23:00 +10°C° 0 mm 9 mps 765 mmHg 84%

    28 Enero, Domingo

    Tiempo Temperatura Precipitaciones Viento Presión Humedad
    00:00 +8°C° 0 mm 9 mps 765 mmHg 85%
    01:00 +9°C° 0 mm 8 mps 765 mmHg 87%
    02:00 +7°C° 0 mm 8 mps 764 mmHg 88%
    03:00 +8°C° 0 mm 7 mps 765 mmHg 86%
    04:00 +6°C° 0 mm 7 mps 765 mmHg 83%
    05:00 +6°C° 0 mm 7 mps 765 mmHg 81%
    06:00 +7°C° 0 mm 6 mps 765 mmHg 77%
    07:00 +7°C° 0 mm 6 mps 765 mmHg 74%
    08:00 +7°C° 0 mm 6 mps 766 mmHg 70%
    09:00 +9°C° 0 mm 6 mps 766 mmHg 61%
    10:00 +12°C° 0 mm 5 mps 766 mmHg 52%
    11:00 +13°C° 0 mm 5 mps 766 mmHg 43%
    12:00 +14°C° 0 mm 4 mps 765 mmHg 42%
    13:00 +15°C° 0 mm 4 mps 764 mmHg 40%
    14:00 +15°C° 0 mm 4 mps 764 mmHg 38%
    15:00 +14°C° 0 mm 4 mps 764 mmHg 44%
    16:00 +13°C° 0 mm 4 mps 764 mmHg 49%
    17:00 +11°C° 0 mm 4 mps 764 mmHg 54%
    18:00 +10°C° 0 mm 4 mps 764 mmHg 57%
    19:00 +9°C° 0 mm 5 mps 764 mmHg 60%
    20:00 +8°C° 0 mm 5 mps 765 mmHg 64%
    21:00 +8°C° 0 mm 5 mps 764 mmHg 64%
    22:00 +7°C° 0 mm 5 mps 764 mmHg 64%
    23:00 +7°C° 0 mm 4 mps 764 mmHg 64%

    29 Enero, Lunes

    Tiempo Temperatura Precipitaciones Viento Presión Humedad
    00:00 +6°C° 0 mm 4 mps 764 mmHg 61%
    01:00 +6°C° 0 mm 4 mps 763 mmHg 58%
    02:00 +6°C° 0 mm 4 mps 763 mmHg 54%
    03:00 +6°C° 0 mm 5 mps 763 mmHg 55%
    04:00 +6°C° 0 mm 5 mps 763 mmHg 56%
    05:00 +6°C° 0 mm 5 mps 763 mmHg 57%
    06:00 +6°C° 0 mm 5 mps 763 mmHg 57%
    07:00 +7°C° 0 mm 6 mps 763 mmHg 57%
    08:00 +8°C° 0 mm 6 mps 764 mmHg 57%
    09:00 +10°C° 0 mm 6 mps 764 mmHg 54%
    10:00 +13°C° 0 mm 6 mps 764 mmHg 50%
    11:00 +15°C° 0 mm 6 mps 764 mmHg 47%
    12:00 +16°C° 0 mm 6 mps 763 mmHg 47%
    13:00 +16°C° 0 mm 6 mps 763 mmHg 46%
    14:00 +16°C° 0 mm 5 mps 762 mmHg 46%
    15:00 +15°C° 0 mm 5 mps 762 mmHg 51%
    16:00 +14°C° 0 mm 5 mps 762 mmHg 57%
    17:00 +12°C° 0 mm 4 mps 763 mmHg 62%
    18:00 +10°C° 0 mm 5 mps 763 mmHg 64%
    19:00 +10°C° 0 mm 5 mps 763 mmHg 66%
    20:00 +9°C° 0 mm 5 mps 764 mmHg 68%
    21:00 +8°C° 0 mm 5 mps 764 mmHg 70%
    22:00 +8°C° 0 mm 5 mps 764 mmHg 71%
    23:00 +7°C° 0 mm 4 mps 763 mmHg 72%
    Mostrar más